Time,TemperatureF,DewpointF,PressureIn,WindDirection,WindDirectionDegrees,WindSpeedMPH,WindSpeedGustMPH,Humidity,HourlyPrecipIn,Conditions,Clouds,dailyrainin,SoftwareType,DateUTC
2013-01-09 00:03:00,29.0,23.0,30.32,SW,220,0.0,-999.0,79,-99.99,,,-99.99,,2013-01-09 05:03:00,
2013-01-09 00:12:00,29.0,23.0,30.32,SW,220,0.0,-999.0,79,-99.99,,,-99.99,,2013-01-09 05:12:00,
2013-01-09 00:22:00,29.0,23.0,30.33,SW,220,0.0,-999.0,79,-99.99,,,-99.99,,2013-01-09 05:22:00,
2013-01-09 00:33:00,29.0,23.0,30.33,SW,220,0.0,-999.0,79,-99.99,,,-99.99,,2013-01-09 05:33:00,
2013-01-09 00:42:00,29.0,23.0,30.33,SW,220,0.0,-999.0,79,-99.99,,,-99.99,,2013-01-09 05:42:00,
2013-01-09 00:52:00,29.0,24.0,30.33,SW,220,0.0,-999.0,80,-99.99,,,-99.99,,2013-01-09 05:52:00,
2013-01-09 01:02:00,29.0,24.0,30.33,SW,220,0.0,-999.0,80,-99.99,,,-99.99,,2013-01-09 06:02:00,
2013-01-09 01:12:00,29.0,24.0,30.33,SW,220,0.0,-999.0,80,-99.99,,,-99.99,,2013-01-09 06:12:00,
2013-01-09 01:22:00,29.0,23.0,30.33,SW,220,0.0,-999.0,79,-99.99,,,-99.99,,2013-01-09 06:22:00,
2013-01-09 01:32:00,29.0,23.0,30.33,SW,220,0.0,-999.0,79,-99.99,,,-99.99,,2013-01-09 06:32:00,
2013-01-09 01:42:00,29.0,23.0,30.33,SW,220,0.0,-999.0,79,-99.99,,,-99.99,,2013-01-09 06:42:00,
2013-01-09 01:52:00,28.0,23.0,30.34,SW,220,0.0,-999.0,80,-99.99,,,-99.99,,2013-01-09 06:52:00,
2013-01-09 02:02:00,28.0,23.0,30.33,SW,220,0.0,-999.0,80,-99.99,,,-99.99,,2013-01-09 07:02:00,
2013-01-09 02:12:00,28.0,23.0,30.33,SW,220,0.0,-999.0,80,-99.99,,,-99.99,,2013-01-09 07:12:00,
2013-01-09 02:22:00,28.0,23.0,30.33,SW,220,0.0,-999.0,81,-99.99,,,-99.99,,2013-01-09 07:22:00,
2013-01-09 02:32:00,28.0,23.0,30.33,SW,220,0.0,-999.0,81,-99.99,,,-99.99,,2013-01-09 07:32:00,
2013-01-09 02:42:00,28.0,23.0,30.33,SW,220,0.0,-999.0,81,-99.99,,,-99.99,,2013-01-09 07:42:00,
2013-01-09 02:52:00,27.0,22.0,30.32,SW,220,0.0,-999.0,82,-99.99,,,-99.99,,2013-01-09 07:52:00,
2013-01-09 03:02:00,27.0,23.0,30.33,SW,220,0.0,-999.0,83,-99.99,,,-99.99,,2013-01-09 08:02:00,
2013-01-09 03:12:00,27.0,23.0,30.33,SW,220,0.0,-999.0,83,-99.99,,,-99.99,,2013-01-09 08:12:00,
2013-01-09 03:22:00,27.0,23.0,30.33,SW,220,0.0,-999.0,83,-99.99,,,-99.99,,2013-01-09 08:22:00,
2013-01-09 03:32:00,27.0,23.0,30.33,SW,220,0.0,-999.0,83,-99.99,,,-99.99,,2013-01-09 08:32:00,
2013-01-09 03:42:00,27.0,23.0,30.33,SW,220,0.0,-999.0,83,-99.99,,,-99.99,,2013-01-09 08:42:00,
2013-01-09 03:53:00,27.0,23.0,30.33,SW,220,0.0,-999.0,83,-99.99,,,-99.99,,2013-01-09 08:53:00,
2013-01-09 04:02:00,27.0,23.0,30.33,SW,220,0.0,-999.0,83,-99.99,,,-99.99,,2013-01-09 09:02:00,
2013-01-09 04:12:00,27.0,23.0,30.33,SW,220,0.0,-999.0,83,-99.99,,,-99.99,,2013-01-09 09:12:00,
2013-01-09 04:22:00,27.0,23.0,30.33,SW,220,0.0,-999.0,83,-99.99,,,-99.99,,2013-01-09 09:22:00,
2013-01-09 04:32:00,26.0,22.0,30.32,SW,220,0.0,-999.0,83,-99.99,,,-99.99,,2013-01-09 09:32:00,
2013-01-09 04:42:00,26.0,22.0,30.32,SW,220,0.0,-999.0,83,-99.99,,,-99.99,,2013-01-09 09:42:00,
2013-01-09 04:53:00,26.0,22.0,30.32,SW,220,0.0,-999.0,83,-99.99,,,-99.99,,2013-01-09 09:53:00,
2013-01-09 05:02:00,26.0,22.0,30.32,SW,220,0.0,-999.0,84,-99.99,,,-99.99,,2013-01-09 10:02:00,
2013-01-09 05:12:00,26.0,22.0,30.32,SW,220,0.0,-999.0,84,-99.99,,,-99.99,,2013-01-09 10:12:00,
2013-01-09 05:22:00,25.0,21.0,30.33,SW,220,0.0,-999.0,85,-99.99,,,-99.99,,2013-01-09 10:22:00,
2013-01-09 05:32:00,25.0,21.0,30.32,SW,220,0.0,-999.0,85,-99.99,,,-99.99,,2013-01-09 10:32:00,
2013-01-09 05:42:00,25.0,21.0,30.32,SW,220,0.0,-999.0,85,-99.99,,,-99.99,,2013-01-09 10:42:00,
2013-01-09 05:52:00,25.0,21.0,30.33,SW,220,0.0,-999.0,86,-99.99,,,-99.99,,2013-01-09 10:52:00,
2013-01-09 06:02:00,24.0,20.0,30.32,SW,220,0.0,-999.0,86,-99.99,,,-99.99,,2013-01-09 11:02:00,
2013-01-09 06:12:00,24.0,20.0,30.32,SW,220,0.0,-999.0,86,-99.99,,,-99.99,,2013-01-09 11:12:00,
2013-01-09 06:22:00,24.0,20.0,30.33,SW,220,0.0,-999.0,86,-99.99,,,-99.99,,2013-01-09 11:22:00,
2013-01-09 06:33:00,24.0,20.0,30.34,SW,220,0.0,-999.0,86,-99.99,,,-99.99,,2013-01-09 11:33:00,
2013-01-09 06:42:00,24.0,20.0,30.34,SW,220,0.0,-999.0,86,-99.99,,,-99.99,,2013-01-09 11:42:00,
2013-01-09 06:52:00,23.0,19.0,30.35,SW,220,0.0,-999.0,86,-99.99,,,-99.99,,2013-01-09 11:52:00,
2013-01-09 07:03:00,23.0,20.0,30.35,SW,220,0.0,-999.0,87,-99.99,,,-99.99,,2013-01-09 12:03:00,
2013-01-09 07:12:00,23.0,20.0,30.35,SW,220,0.0,-999.0,87,-99.99,,,-99.99,,2013-01-09 12:12:00,
2013-01-09 07:23:00,23.0,20.0,30.35,SW,220,0.0,-999.0,87,-99.99,,,-99.99,,2013-01-09 12:23:00,
2013-01-09 07:33:00,22.0,19.0,30.36,SW,220,0.0,-999.0,87,-99.99,,,-99.99,,2013-01-09 12:33:00,
2013-01-09 07:43:00,22.0,19.0,30.36,SW,220,0.0,-999.0,87,-99.99,,,-99.99,,2013-01-09 12:43:00,
2013-01-09 07:52:00,22.0,19.0,30.36,SW,220,0.0,-999.0,87,-99.99,,,-99.99,,2013-01-09 12:52:00,
2013-01-09 08:03:00,23.0,20.0,30.36,SW,220,0.0,-999.0,88,-99.99,,,-99.99,,2013-01-09 13:03:00,
2013-01-09 08:12:00,23.0,20.0,30.36,SW,220,0.0,-999.0,88,-99.99,,,-99.99,,2013-01-09 13:12:00,
2013-01-09 08:23:00,24.0,21.0,30.35,SW,220,0.0,-999.0,89,-99.99,,,-99.99,,2013-01-09 13:23:00,
2013-01-09 08:33:00,25.0,22.0,30.35,SW,220,0.0,-999.0,88,-99.99,,,-99.99,,2013-01-09 13:33:00,
2013-01-09 08:43:00,25.0,22.0,30.35,SW,220,0.0,-999.0,88,-99.99,,,-99.99,,2013-01-09 13:43:00,
2013-01-09 08:52:00,26.0,23.0,30.35,SW,220,0.0,-999.0,88,-99.99,,,-99.99,,2013-01-09 13:52:00,
2013-01-09 09:03:00,25.0,21.0,30.35,SW,220,0.0,-999.0,86,-99.99,,,-99.99,,2013-01-09 14:03:00,
2013-01-09 09:12:00,25.0,21.0,30.35,SW,220,0.0,-999.0,86,-99.99,,,-99.99,,2013-01-09 14:12:00,
2013-01-09 09:23:00,26.0,22.0,30.34,SW,220,0.0,-999.0,86,-99.99,,,-99.99,,2013-01-09 14:23:00,
2013-01-09 09:33:00,27.0,23.0,30.34,SW,220,0.0,-999.0,84,-99.99,,,-99.99,,2013-01-09 14:33:00,
2013-01-09 09:43:00,27.0,23.0,30.34,SW,220,0.0,-999.0,84,-99.99,,,-99.99,,2013-01-09 14:43:00,
2013-01-09 09:53:00,28.0,24.0,30.34,SW,220,0.0,-999.0,83,-99.99,,,-99.99,,2013-01-09 14:53:00,
2013-01-09 10:03:00,30.0,25.0,30.34,SW,220,0.0,-999.0,82,-99.99,,,-99.99,,2013-01-09 15:03:00,
2013-01-09 10:13:00,30.0,25.0,30.34,SW,220,0.0,-999.0,82,-99.99,,,-99.99,,2013-01-09 15:13:00,
2013-01-09 10:23:00,32.0,26.0,30.32,SW,220,0.0,-999.0,79,-99.99,,,-99.99,,2013-01-09 15:23:00,
2013-01-09 10:33:00,33.0,26.0,30.32,SW,220,0.0,-999.0,74,-99.99,,,-99.99,,2013-01-09 15:33:00,
2013-01-09 10:43:00,33.0,26.0,30.32,SW,220,0.0,-999.0,74,-99.99,,,-99.99,,2013-01-09 15:43:00,
2013-01-09 10:53:00,34.0,26.0,30.31,SW,219,0.0,-999.0,71,-99.99,,,-99.99,,2013-01-09 15:53:00,
2013-01-09 11:03:00,35.0,25.0,30.31,SW,221,0.0,-999.0,67,-99.99,,,-99.99,,2013-01-09 16:03:00,
2013-01-09 11:12:00,35.0,25.0,30.31,SW,221,0.0,-999.0,67,-99.99,,,-99.99,,2013-01-09 16:12:00,
2013-01-09 11:23:00,36.0,25.0,30.30,SW,221,0.0,-999.0,65,-99.99,,,-99.99,,2013-01-09 16:23:00,
2013-01-09 11:33:00,36.0,25.0,30.29,SW,221,0.0,-999.0,65,-99.99,,,-99.99,,2013-01-09 16:33:00,
2013-01-09 11:43:00,36.0,25.0,30.29,SW,221,0.0,-999.0,65,-99.99,,,-99.99,,2013-01-09 16:43:00,
2013-01-09 11:52:00,37.0,26.0,30.26,SW,221,0.0,-999.0,63,-99.99,,,-99.99,,2013-01-09 16:52:00,
2013-01-09 12:03:00,38.0,27.0,30.24,SW,221,0.0,-999.0,63,-99.99,,,-99.99,,2013-01-09 17:03:00,
2013-01-09 12:12:00,38.0,27.0,30.24,SW,221,0.0,-999.0,63,-99.99,,,-99.99,,2013-01-09 17:12:00,
2013-01-09 12:23:00,39.0,27.0,30.22,SW,218,0.0,-999.0,62,-99.99,,,-99.99,,2013-01-09 17:23:00,
2013-01-09 12:33:00,40.0,28.0,30.19,SW,215,0.0,-999.0,62,-99.99,,,-99.99,,2013-01-09 17:33:00,
2013-01-09 12:43:00,40.0,28.0,30.19,SW,215,0.0,-999.0,62,-99.99,,,-99.99,,2013-01-09 17:43:00,
2013-01-09 12:53:00,39.0,26.0,30.17,SSE,148,2.0,-999.0,60,-99.99,,,-99.99,,2013-01-09 17:53:00,
2013-01-09 13:03:00,39.0,26.0,30.16,South,175,0.0,-999.0,60,-99.99,,,-99.99,,2013-01-09 18:03:00,
2013-01-09 13:12:00,39.0,26.0,30.16,South,175,0.0,-999.0,60,-99.99,,,-99.99,,2013-01-09 18:12:00,
2013-01-09 13:24:00,40.0,27.0,30.15,SE,134,1.0,-999.0,60,-99.99,,,-99.99,,2013-01-09 18:24:00,
2013-01-09 13:33:00,40.0,27.0,30.15,South,191,1.0,-999.0,60,-99.99,,,-99.99,,2013-01-09 18:33:00,
2013-01-09 13:43:00,40.0,27.0,30.15,South,191,1.0,-999.0,60,-99.99,,,-99.99,,2013-01-09 18:43:00,
2013-01-09 13:53:00,40.0,27.0,30.18,WSW,238,2.0,-999.0,59,-99.99,,,-99.99,,2013-01-09 18:53:00,
2013-01-09 14:03:00,40.0,27.0,30.17,SSW,200,2.0,-999.0,60,-99.99,,,-99.99,,2013-01-09 19:03:00,
2013-01-09 14:13:00,40.0,27.0,30.17,SSW,200,2.0,-999.0,60,-99.99,,,-99.99,,2013-01-09 19:13:00,
2013-01-09 14:23:00,40.0,27.0,30.15,SSW,194,1.0,-999.0,60,-99.99,,,-99.99,,2013-01-09 19:23:00,
2013-01-09 14:33:00,41.0,28.0,30.13,South,180,1.0,-999.0,59,-99.99,,,-99.99,,2013-01-09 19:33:00,
2013-01-09 14:43:00,41.0,28.0,30.13,South,180,1.0,-999.0,59,-99.99,,,-99.99,,2013-01-09 19:43:00,
2013-01-09 14:52:00,42.0,29.0,30.12,South,182,0.0,-999.0,59,-99.99,,,-99.99,,2013-01-09 19:52:00,
2013-01-09 15:03:00,42.0,28.0,30.10,South,178,0.0,-999.0,58,-99.99,,,-99.99,,2013-01-09 20:03:00,
2013-01-09 15:12:00,42.0,28.0,30.10,South,178,0.0,-999.0,58,-99.99,,,-99.99,,2013-01-09 20:12:00,
2013-01-09 15:23:00,42.0,28.0,30.10,SSW,192,0.0,-999.0,57,-99.99,,,-99.99,,2013-01-09 20:23:00,
2013-01-09 15:33:00,42.0,28.0,30.10,SSW,202,2.0,-999.0,57,-99.99,,,-99.99,,2013-01-09 20:33:00,
2013-01-09 15:43:00,42.0,28.0,30.10,SSW,202,2.0,-999.0,57,-99.99,,,-99.99,,2013-01-09 20:43:00,
2013-01-09 15:53:00,42.0,28.0,30.09,SW,215,3.0,-999.0,58,-99.99,,,-99.99,,2013-01-09 20:53:00,
2013-01-09 16:03:00,42.0,28.0,30.07,South,182,5.0,-999.0,58,-99.99,,,-99.99,,2013-01-09 21:03:00,
2013-01-09 16:13:00,42.0,28.0,30.07,South,182,5.0,-999.0,58,-99.99,,,-99.99,,2013-01-09 21:13:00,
2013-01-09 16:23:00,42.0,29.0,30.02,SE,140,5.0,-999.0,59,-99.99,,,-99.99,,2013-01-09 21:23:00,
2013-01-09 16:33:00,42.0,30.0,30.00,SSW,211,6.0,-999.0,61,-99.99,,,-99.99,,2013-01-09 21:33:00,
2013-01-09 16:43:00,42.0,30.0,30.00,SSW,211,6.0,-999.0,61,-99.99,,,-99.99,,2013-01-09 21:43:00,
2013-01-09 16:52:00,41.0,29.0,30.00,WSW,257,5.0,-999.0,62,-99.99,,,-99.99,,2013-01-09 21:52:00,
2013-01-09 17:03:00,41.0,29.0,30.01,SSW,197,3.0,-999.0,63,-99.99,,,-99.99,,2013-01-09 22:03:00,
2013-01-09 17:12:00,41.0,29.0,30.01,SSW,197,3.0,-999.0,63,-99.99,,,-99.99,,2013-01-09 22:12:00,
2013-01-09 17:23:00,41.0,30.0,29.99,SSW,205,3.0,-999.0,64,-99.99,,,-99.99,,2013-01-09 22:23:00,
2013-01-09 17:33:00,41.0,31.0,29.99,SW,219,3.0,-999.0,66,-99.99,,,-99.99,,2013-01-09 22:33:00,
2013-01-09 17:43:00,41.0,31.0,29.99,SW,219,3.0,-999.0,66,-99.99,,,-99.99,,2013-01-09 22:43:00,
2013-01-09 17:52:00,40.0,30.0,29.97,SW,229,4.0,-999.0,67,-99.99,,,-99.99,,2013-01-09 22:52:00,
2013-01-09 18:03:00,40.0,31.0,29.96,SSW,207,3.0,-999.0,69,-99.99,,,-99.99,,2013-01-09 23:03:00,
2013-01-09 18:13:00,40.0,31.0,29.96,SSW,207,3.0,-999.0,69,-99.99,,,-99.99,,2013-01-09 23:13:00,
2013-01-09 18:23:00,40.0,31.0,29.97,South,182,3.0,-999.0,70,-99.99,,,-99.99,,2013-01-09 23:23:00,
2013-01-09 18:33:00,40.0,31.0,29.96,SW,223,3.0,-999.0,71,-99.99,,,-99.99,,2013-01-09 23:33:00,
2013-01-09 18:43:00,40.0,31.0,29.96,SW,223,3.0,-999.0,71,-99.99,,,-99.99,,2013-01-09 23:43:00,
2013-01-09 18:52:00,40.0,32.0,29.97,South,169,2.0,-999.0,73,-99.99,,,-99.99,,2013-01-09 23:52:00,
2013-01-09 19:03:00,40.0,32.0,29.97,SW,232,3.0,-999.0,74,-99.99,,,-99.99,,2013-01-10 00:03:00,
2013-01-09 19:12:00,40.0,32.0,29.97,SW,232,3.0,-999.0,74,-99.99,,,-99.99,,2013-01-10 00:12:00,
2013-01-09 19:22:00,40.0,32.0,29.97,WSW,242,1.0,-999.0,74,-99.99,,,-99.99,,2013-01-10 00:22:00,
2013-01-09 19:32:00,40.0,32.0,29.97,SW,215,4.0,-999.0,74,-99.99,,,-99.99,,2013-01-10 00:32:00,
2013-01-09 19:42:00,40.0,32.0,29.97,SW,215,4.0,-999.0,74,-99.99,,,-99.99,,2013-01-10 00:42:00,
2013-01-09 19:53:00,40.0,33.0,29.97,SSW,198,1.0,-999.0,75,-99.99,,,-99.99,,2013-01-10 00:53:00,
2013-01-09 20:02:00,39.0,32.0,29.96,WSW,247,2.0,-999.0,76,-99.99,,,-99.99,,2013-01-10 01:02:00,
2013-01-09 20:12:00,39.0,32.0,29.96,WSW,247,2.0,-999.0,76,-99.99,,,-99.99,,2013-01-10 01:12:00,
2013-01-09 20:22:00,39.0,32.0,29.96,WSW,241,2.0,-999.0,77,-99.99,,,-99.99,,2013-01-10 01:22:00,
2013-01-09 20:33:00,39.0,32.0,29.97,West,265,3.0,-999.0,77,-99.99,,,-99.99,,2013-01-10 01:33:00,
2013-01-09 20:43:00,39.0,32.0,29.97,West,265,3.0,-999.0,77,-99.99,,,-99.99,,2013-01-10 01:43:00,
2013-01-09 20:52:00,40.0,33.0,29.97,WSW,252,3.0,-999.0,76,-99.99,,,-99.99,,2013-01-10 01:52:00,
2013-01-09 21:03:00,40.0,32.0,29.97,WSW,241,4.0,-999.0,74,-99.99,,,-99.99,,2013-01-10 02:03:00,
2013-01-09 21:12:00,40.0,32.0,29.97,WSW,241,4.0,-999.0,74,-99.99,,,-99.99,,2013-01-10 02:12:00,
2013-01-09 21:22:00,41.0,33.0,29.96,WSW,250,5.0,-999.0,73,-99.99,,,-99.99,,2013-01-10 02:22:00,
2013-01-09 21:33:00,41.0,33.0,29.96,West,262,4.0,-999.0,72,-99.99,,,-99.99,,2013-01-10 02:33:00,
2013-01-09 21:42:00,41.0,33.0,29.96,West,262,4.0,-999.0,72,-99.99,,,-99.99,,2013-01-10 02:42:00,
2013-01-09 21:52:00,41.0,33.0,29.96,West,262,4.0,-999.0,72,-99.99,,,-99.99,,2013-01-10 02:52:00,
2013-01-09 22:03:00,41.0,32.0,29.97,WSW,249,4.0,-999.0,71,-99.99,,,-99.99,,2013-01-10 03:03:00,
2013-01-09 22:12:00,41.0,32.0,29.97,WSW,249,4.0,-999.0,71,-99.99,,,-99.99,,2013-01-10 03:12:00,
2013-01-09 22:22:00,41.0,32.0,29.98,SW,225,3.0,-999.0,71,-99.99,,,-99.99,,2013-01-10 03:22:00,
2013-01-09 22:33:00,41.0,32.0,29.98,SW,225,3.0,-999.0,71,-99.99,,,-99.99,,2013-01-10 03:33:00,
2013-01-09 22:42:00,41.0,32.0,29.98,SW,225,3.0,-999.0,71,-99.99,,,-99.99,,2013-01-10 03:42:00,
2013-01-09 22:52:00,41.0,31.0,29.99,SSW,204,6.0,-999.0,68,-99.99,,,-99.99,,2013-01-10 03:52:00,
2013-01-09 23:02:00,42.0,31.0,30.01,WSW,254,5.0,-999.0,65,-99.99,,,-99.99,,2013-01-10 04:02:00,
2013-01-09 23:12:00,42.0,31.0,30.01,WSW,254,5.0,-999.0,65,-99.99,,,-99.99,,2013-01-10 04:12:00,
2013-01-09 23:22:00,42.0,30.0,30.00,WNW,284,7.0,-999.0,62,-99.99,,,-99.99,,2013-01-10 04:22:00,
2013-01-09 23:32:00,42.0,28.0,30.00,WNW,284,5.0,-999.0,58,-99.99,,,-99.99,,2013-01-10 04:32:00,
2013-01-09 23:43:00,42.0,28.0,30.00,WNW,284,5.0,-999.0,58,-99.99,,,-99.99,,2013-01-10 04:43:00,
2013-01-09 23:52:00,42.0,27.0,30.00,WSW,256,6.0,-999.0,55,-99.99,,,-99.99,,2013-01-10 04:52:00,